Phoenix-Mesa Gateway Airport, AZ

1:14 PM MST on December 15, 2017 (GMT -0700)
Phoenix-Mesa Gateway Airport

Weather History for KIWA - October, 2012

Change the Weather History Date:

Monday, October 8, 2012

  Actual Average Record
Temperature  
Mean Temperature 78 °F -  
Max Temperature 93 °F 89 °F 100 °F (2008)
Min Temperature 62 °F 62 °F 51 °F (1997)
Cooling Degree Days 12    
Growing Degree Days 28 (Base 50)    
Moisture  
Dew Point 40 °F    
Average Humidity 30    
Maximum Humidity 43    
Minimum Humidity 15    
Precipitation  
Precipitation 0.00 in - - ()
Sea Level Pressure  
Sea Level Pressure 29.91 in    
Wind  
Wind Speed 5 mph (SE)    
Max Wind Speed 9 mph    
Max Gust Speed -    
Visibility 11 miles    
Events      
Averages and records for this station are not official NWS values.
T = Trace of Precipitation, MM = Missing Value Source: NWS Daily Summary

Daily Weather History Graph

Daily Weather History Graph

Search for Another Location

Airport or City:

Trip Planner

Search our weather history database for the weather conditions in past years. The results will help you decide how hot, cold, wet, or windy it might be!

Date:

Astronomy

Oct. 08, 2012 Rise Set
Actual Time 6:26 AM MST 6:01 PM MST
Civil Twilight 6:01 AM MST 6:25 PM MST
Nautical Twilight 5:32 AM MST 6:54 PM MST
Astronomical Twilight 5:03 AM MST 7:23 PM MST
Moon No Moon Rise 1:34 PM MST (10/8)
Length of Visible Light 12h 24m
Length of Day
11h 34m
Last Quarter, 45% of the Moon is Illuminated
Oct 8
Last Quarter
Oct 15
New
Oct 21
First Quarter
Oct 29
Full
Nov 6
Last Quarter

Hourly Weather History & Observations

Time (MST) Temp. Dew Point Humidity Pressure Visibility Wind Dir Wind Speed Gust Speed Precip Events Conditions
12:15 AM 68.0 °F 41.0 °F 37% 29.89 in 10.0 mi SSE 5.8 mph - N/A   Clear
12:35 AM 68.0 °F 41.0 °F 37% 29.90 in 10.0 mi ESE 4.6 mph - N/A   Clear
12:55 AM 68.0 °F 37.4 °F 33% 29.90 in 10.0 mi ESE 5.8 mph - N/A   Clear
1:15 AM 66.2 °F 35.6 °F 32% 29.90 in 10.0 mi East 6.9 mph - N/A   Clear
1:35 AM 66.2 °F 35.6 °F 32% 29.90 in 10.0 mi ESE 6.9 mph - N/A   Clear
1:55 AM 66.2 °F 35.6 °F 32% 29.90 in 10.0 mi ESE 5.8 mph - N/A   Clear
2:15 AM 68.0 °F 35.6 °F 30% 29.90 in 10.0 mi ESE 5.8 mph - N/A   Clear
2:35 AM 66.2 °F 35.6 °F 32% 29.90 in 10.0 mi East 5.8 mph - N/A   Clear
2:55 AM 64.4 °F 33.8 °F 32% 29.90 in 10.0 mi East 6.9 mph - N/A   Clear
3:15 AM 64.4 °F 33.8 °F 32% 29.90 in 10.0 mi East 5.8 mph - N/A   Clear
3:35 AM 64.4 °F 33.8 °F 32% 29.90 in 10.0 mi ESE 6.9 mph - N/A   Clear
3:55 AM 64.4 °F 33.8 °F 32% 29.90 in 10.0 mi ESE 6.9 mph - N/A   Clear
4:15 AM 62.6 °F 37.4 °F 39% 29.91 in 10.0 mi SE 5.8 mph - N/A   Clear
4:35 AM 62.6 °F 39.2 °F 42% 29.91 in 10.0 mi SE 6.9 mph - N/A   Clear
4:55 AM 62.6 °F 39.2 °F 42% 29.91 in 10.0 mi ESE 8.1 mph - N/A   Clear
5:15 AM 64.4 °F 37.4 °F 37% 29.92 in 10.0 mi ESE 9.2 mph - N/A   Clear
6:47 AM 64.4 °F 37.4 °F 37% 29.94 in 35.0 mi ESE 4.6 mph - N/A   Scattered Clouds
7:47 AM 66.2 °F 42.8 °F 43% 29.97 in 35.0 mi ESE 5.8 mph - N/A   Scattered Clouds
8:47 AM 73.4 °F 41.0 °F 31% 29.98 in 35.0 mi SE 8.1 mph - N/A   Scattered Clouds
9:47 AM 80.6 °F 39.2 °F 23% 29.97 in 35.0 mi SSE 8.1 mph - N/A   Partly Cloudy
10:47 AM 84.2 °F 41.0 °F 22% 29.96 in 35.0 mi South 5.8 mph - N/A   Partly Cloudy
11:47 AM 86.0 °F 39.2 °F 19% 29.95 in 35.0 mi South 5.8 mph - N/A   Partly Cloudy
12:48 PM 89.6 °F 39.2 °F 17% 29.92 in 35.0 mi Variable 3.5 mph - N/A   Partly Cloudy
1:47 PM 91.4 °F 39.2 °F 16% 29.90 in 45.0 mi WSW 6.9 mph - N/A   Clear
3:47 PM 93.2 °F 39.2 °F 15% 29.86 in 45.0 mi Calm Calm - N/A   Clear
4:47 PM 93.2 °F 39.2 °F 15% 29.85 in 35.0 mi West 8.1 mph - N/A   Clear
5:47 PM 91.4 °F 39.2 °F 16% 29.85 in 35.0 mi West 5.8 mph - N/A   Clear
6:47 PM 84.2 °F 39.2 °F 20% 29.86 in 20.0 mi NW 4.6 mph - N/A   Clear
7:47 PM 84.2 °F 42.8 °F 23% 29.88 in 20.0 mi NNW 5.8 mph - N/A   Clear
7:55 PM 80.6 °F 41.0 °F 24% 29.88 in 10.0 mi NNW 4.6 mph - N/A   Clear
8:15 PM 80.6 °F 42.8 °F 26% 29.89 in 10.0 mi NNW 3.5 mph - N/A   Clear
8:35 PM 80.6 °F 42.8 °F 26% 29.89 in 10.0 mi Calm Calm - N/A   Clear
8:47 PM 80.6 °F 42.8 °F 26% 29.90 in 20.0 mi Calm Calm - N/A   Clear
8:55 PM 78.8 °F 42.8 °F 28% 29.90 in 10.0 mi Calm Calm - N/A   Clear
9:15 PM 78.8 °F 41.0 °F 26% 29.90 in 10.0 mi Calm Calm - N/A   Clear
9:35 PM 71.6 °F 42.8 °F 35% 29.91 in 10.0 mi Calm Calm - N/A   Clear
9:55 PM 71.6 °F 44.6 °F 38% 29.91 in 10.0 mi SE 5.8 mph - N/A   Clear
10:15 PM 71.6 °F 44.6 °F 38% 29.91 in 10.0 mi SSE 4.6 mph - N/A   Clear
10:35 PM 71.6 °F 44.6 °F 38% 29.92 in 10.0 mi Calm Calm - N/A   Clear
10:55 PM 71.6 °F 44.6 °F 38% 29.92 in 10.0 mi Calm Calm - N/A   Clear
11:15 PM 73.4 °F 42.8 °F 33% 29.92 in 10.0 mi Calm Calm - N/A   Clear
11:35 PM 71.6 °F 44.6 °F 38% 29.92 in 10.0 mi Calm Calm - N/A   Clear
11:55 PM 69.8 °F 42.8 °F 38% 29.91 in 10.0 mi ESE 3.5 mph - N/A   Clear